Погода в Ужгороде

Погода в Ужгороде : погода сейчас, прогноз погоды и архив. Всё, что Вы хотите узнать о погоде в Ужгороде!

Поиск расширенной информации на нашем сайте:

Другие новости

Новости СМИ2

Главная страница сайта

Новости сайта

03.07.2017

Напоминаем, что на нашем специализированном сайте Метеоцентр.Азия вы можете получить высокодетализированные автоматические прогнозы погоды по пунктам России, СНГ и мира в авиационном формате (включающие направление и скорость ветра, видимость, явления погоды, количество и форму облачности, нижнюю и верхнюю границу облачности).

Рекомендуем: Новые правила по торговле ИП пивом в 2017 году

Погода в Ужгороде - сегодня

Время (UTC), дата Ветер
(°,м/с) 
Видим.   Явления Облачность Т
(°С)
Тd
(°С)
f(%) Тe
(°С)
Pmin
(гПа)
dP
(гПа)
Po
(мм)
O2
(г/м3)
Тmin Tmax R s Состояние
почвы
06 15.08.17 тихо ()   20000 м    ясно 
+16.2 +12.9 81 +21  1022.1  0.5  756  285  +12.3         
09 15.08.17 320 (СЗ) 20000 м    ясно 
+24.5 +12.3 47 +29  1021.5  -0.2  756  277           
12 15.08.17 240 (ЮЗ) 20000 м    3/3 1500 м 
[Cu hum]
+26.3 +13.2 44 +32  1020.7  -0.7  755  275           
15 15.08.17 300 (СЗ) 20000 м    ясно 
+27.2 +15.1 48 +36  1019.6  -1  755  273           
18 15.08.17 300 (СЗ) 20000 м    ясно 
+22.7 +16.3 67 +34  1019.5  -0.3  754  277    +28       
21 15.08.17 020 (С) 10 км    ясно 
+17.8 +15.2 85 +28  1020  0.3  755  282           
00 16.08.17 тихо ()   10 км    ясно 
+15.4 +13.8 90 +22  1019.9  -0.2  754  285           
03 16.08.17 тихо ()   10 км    ясно 
+13.8 +12.7 93 +19  1019.8  -0.2  754  287           
06 16.08.17 тихо ()   10 км    ясно 
+17.4 +15 86 +26  1020.4  0.8  755  283  +13         
09 16.08.17 300 (СЗ) 20000 м    ясно 
+23.9 +13.8 53 +30  1020.2  755  277           
12 16.08.17 330 (СЗ) 20000 м    3/3 1000 м 
[Cu hum]
+27.8 +12 38 +32  1018.9  -1.1  754  274           
15 16.08.17 360 (С) 20000 м    1/1 1000 м 
[Cu hum]
+28.7 +13 38 +34  1017.9  -1  753  272           
18 16.08.17 тихо ()   20000 м    3/0 верхняя 
[Ci fib]
+22 +17.8 77 +36  1018.3  0.2  753  277    +29       
21 16.08.17 тихо ()   10 км    ясно 
+17 +15.3 90 +26  1018.9  0.3  754  283           
00 17.08.17 тихо ()   10 км    ясно 
+16 +14.2 89 +23  1018.5  -0.4  753  284           
03 17.08.17 тихо ()   10 км    ясно 
+15.2 +14.1 93 +22  1018.6  753  285           
06 17.08.17 280 (З) 10 км    ясно 
+19.6 +15.9 79 +31  1019  0.7  754  280  +14.4         
09 17.08.17 300 (СЗ) 10 км    3/3 1500 м 
[Cu hum]
+24.7 +17.5 64 +38  1019.1  0.2  754  275           
12 17.08.17 010 (С) 10 км    3/3 1000 м 
[Cu med, cong]
+28.5 +17.3 51 +41  1017.9  -1  753  271           
15 17.08.17 290 (З) 10 км    5/3 1000 м верхняя 
[Cu med, cong|Ci fib]
+30.3 +17.4 46 +43  1016.7  -1.1  752  269           
18 17.08.17 100 (В) 10 км    3/0 верхняя 
[Ci fib]
+24.7 +17.4 64 +38  1017.6  0.6  753  274    +30.9       
21 17.08.17 тихо ()   10 км    3/0 средняя 
[Ac trans]
+19.4 +16.8 85 +31  1018.5  0.8  754  280           
00 18.08.17 тихо ()   10 км    ясно 
+17.6 +15.4 87 +27  1018.5  -0.1  753  282           
03 18.08.17 290 (З) 10 км    3/0 верхняя 
[Ci fib]
+16.2 +14.3 89 +25  1018.6  753  284           
06 18.08.17 тихо ()   10 км    8/0 верхняя 
[Ci fib]
+19.6 +15.8 79 +30  1019.4  754  280  +15.4         
Время (UTC), дата Ветер
(°,м/с) 
Видим.   Явления Облачность Т
(°С)
Тd
(°С)
f(%) Тe
(°С)
Pmin
(гПа)
dP
(гПа)
Po
(мм)
O2
(г/м3)
Тmin Tmax R s Состояние
почвы

Для получения пояснительной информации подведите курсор к названию столбца.

ПОГОДА в Ужгороде - архив

Всё, что Вы хотите узнать о погоде в Ужгороде - удобно и подробно!

Выберите нужную дату (начиная с 1 января 2015* года) и нажмите кнопку "Найти".
Будут отображены архивные сводки погоды по пункту Ужгород, начиная с указанной даты.


Отображать данные в формате CSV (для использования в таблицах Excel)


Внимание! Наш архив погоды предназначен исключительно для личного некоммерческого использования в познавательных целях. Если Вам необходимы официальные справки о состоянии погоды (для производственных, юридических, коммерческих и т.п. целей), обращайтесь в органы Росгидромета.

*Примечание: данная дата относится к архиву по метеостанциям СССР (Россия, СНГ, Балтия).
Архив по метеостанциям Зарубежной Европы и Азии (кроме Китая) хранится 10 дней, по другим регионам земного шара (Китай, Африка, Америка, Австралия, Океания) - 1 день.

Ужгород - район местоположения метеостанции


Название, широта, долгота, высота метеостанции:
Ужгород 48.6°ш. 22.3°д. 124 м над ур. моря [Украина]

Дополнительная информация

В oтличие oт бoльшинства пoгoдных сайтoв мы публикуем пoдрoбную метеoинфoрмацию в детальнoм прoфессиoнальнoм фoрмате.

Характеристики температуры и влажнoсти вoздуха измеряются на высoте 2 м в тени вдали oт зданий и деревьев.
Скoрoсть ветра измеряется на высoте 10 м (на урoвне рoста челoвека скoрoсть ветра ниже в 1.5-2 раза). Если метеoстанция нахoдится в гoрoде или в лесу, тo скoрoсть ветра занижена на 2-4 м/с пo сравнению с oткрытым местoм. Скoрoсть ветра над акватoриями крупных рек и oзёр, а также на вершинах хoлмoв на 2-5 м/с выше, чем в oбычных услoвиях.
Атмoсфернoе давление в разных тoчках местнoсти мoжет значительнo oтличаться oт давления на метеoстанции, в зависимoсти oт услoвий рельефа (при пoдъёме на 10 м давление пoнижается примернo на 1 мм рт.ст.).